Zurück zum Katalog

COSMOS 2173

AktivMilitärPO
NORAD 21796·PAYLOAD·🇷🇺 Russia

Gestartet Nov 27, 1991 von Plesetsk Cosmodrome

Loading…

Nächste Überflüge (nächste 24 Stunden)

TLE

AktuellSource: Space-Track

Epoche: Sep 14, 2026, 01:59 UTC

1 21796U 91081A   26257.08286274  .00000068  00000-0  53508-4 0  9992
2 21796  82.9523 104.9809 0050524  93.2582  18.1771 13.75770137746623

Verfolge COSMOS 2173 in Echtzeit mit AllMySat

Download on the App Store